Regional Weather Roundup
Issued by NWS

Home | Current Version | Previous Version | Graphics & Text | Print | Product List | Glossary On
Versions: 1 2 3 4 5 6 7 8 9 10 11 12 13 14 15 16 17 18 19 20 21 22 23 24 25 26 27 28 29 30 31 32 33 34 35 36 37 38 39 40 41 42 43 44 45 46 47 48 49 50
000
ASUS45 KABQ 202210
RWRNM
WEATHER ROUNDUP FOR NEW MEXICO
NATIONAL WEATHER SERVICE ALBUQUERQUE NM
300 PM MST SAT DEC 20 2014

NOTE: "FAIR" MEANS FEW OR NO CLOUDS BELOW 12,000 FEET AGL WITH NO
       SIGNIFICANT WEATHER OR OBSTRUCTIONS TO VISION.

      THIS PRODUCT IS RELEASED AS TWO VERSIONS.  ONE VERSION NEAR
      THE TOP OF THE HOUR CONTAINING PRELIMINARY DATA FROM ALBUQUERQUE
      AND OTHER STATIONS.  A FINAL VERSION WITH ADDITIONAL DATA IS
      ISSUED ABOUT 10 MINUTES AFTER THE HOUR.

NMZ501-503-504-510>518-202300-
NORTHWEST PLATEAU/NORTHCENTRAL MOUNTAINS

CITY           SKY/WX    TMP DP  RH WIND       PRES   REMARKS
FARMINGTON     SUNNY     41  27  57 W8        30.10S
LOS ALAMOS     SUNNY     40  23  50 S6        30.07S
SANTA FE       SUNNY     39  21  48 W10       30.05S WCI  32
TAOS           SUNNY     39  18  41 CALM      30.06R
ANGEL FIRE     FAIR      38  16  40 SW21      30.02S WCI  28

$$
NMZ402-403-502-505>509-202300-
WESTCENTRAL MOUNTAINS/SOUTHWEST MOUNTAINS

CITY           SKY/WX    TMP DP  RH WIND       PRES   REMARKS
GALLUP         SUNNY     44  28  53 SW6       30.09F
GRANTS         SUNNY     45  21  38 N5        30.10F
SILVER CITY    SUNNY     52  23  32 W7        30.10F

$$
NMZ407-409-411-412-202300-
SOUTHERN DESERTS

CITY           SKY/WX    TMP DP  RH WIND       PRES   REMARKS
LORDSBURG      FAIR      50  32  50 W3        30.10S
DEMING           N/A     53  28  38 SW8       30.08F
LAS CRUCES     SUNNY     53  26  35 W8        30.09F
HOLLOMAN AFB   MOSUNNY   52  23  32 N5        30.07F
ALAMOGORDO     MOSUNNY   52  23  32 NW10      30.08F
T OR C         SUNNY     51  18  27 VRB5      30.07F

$$
NMZ519>523-202300-
CENTRAL VALLEYS/CENTRAL HIGHLANDS

CITY           SKY/WX    TMP DP  RH WIND       PRES   REMARKS
ALBUQUERQUE    MOSUNNY   44  26  49 CALM      30.09F
DOUBLE EAGLE   SUNNY     43  25  49 CALM      30.09S
MORIARTY ARPT  FAIR      46  21  36 NW8       30.06S
CLINES CORNERS SUNNY     42  17  36 W21       30.01S
BELEN          FAIR      47  23  39 CALM      30.08F
SOCORRO        FAIR      48  25  39 N3        30.09S

$$
NMZ524>526-539-540-202300-
SOUTHCENTRAL MOUNTAINS

CITY           SKY/WX    TMP DP  RH WIND       PRES   REMARKS
RUIDOSO        MOSUNNY   45  18  33 NW13G18   30.07R

$$
NMZ527>531-202300-
NORTHEAST HIGHLANDS/NORTHEAST PLAINS

CITY           SKY/WX    TMP DP  RH WIND       PRES   REMARKS
LAS VEGAS      SUNNY     48  11  22 S12       29.99S
RATON          SUNNY     50  10  20 S8        29.94F
CLAYTON        PTSUNNY   49  23  36 S8        29.95F

$$
NMZ532>537-202300-
EASTCENTRAL PLAINS

CITY           SKY/WX    TMP DP  RH WIND       PRES   REMARKS
TUCUMCARI      PTSUNNY   51  23  33 NW3       29.96F
CANNON AFB     MOSUNNY   53  20  28 W9        29.98F
CLOVIS AIRPORT MOSUNNY   52  21  30 W13G20    29.98S

$$
NMZ028-029-538-202300-
SOUTHEAST PLAINS

CITY           SKY/WX    TMP DP  RH WIND       PRES   REMARKS
ROSWELL        MOSUNNY   55  25  31 S7        30.00F
ARTESIA        MOSUNNY   55  30  38 SE9       30.01S
CARLSBAD       SUNNY     58  29  33 SE7       29.99F
HOBBS          SUNNY     54  28  37 S12       30.02F


$$


USA.gov is the U.S. government's official web portal to all federal, state and local government web resources and services.